User: anonymous   Login
Location: Gajan
(43.0218°N, 1.1244°E)
Time: 07:49:30
(UTC+00:00)
Language:

IRIDIUM 103 - Orbit

View from above orbital plane
View from above orbital plane
View from above satellite
View from above satellite

Ground track
Ground track

The orbit data is extracted from the following two-line orbital elements,

1 41918U 17003B   21164.89178945  .00000081  00000-0  21896-4 0  9998
2 41918  86.3965 132.8980 0001911  86.0517 274.0897 14.34218240231048
Epoch (UTC): 13 June 2021 21:24:10
Eccentricity: 0.0001911
inclination: 86.3965°
perigee height: 776 km
apogee height: 779 km
right ascension of ascending node: 132.8980°
argument of perigee: 86.0517°
revolutions per day: 14.34218240
mean anomaly at epoch: 274.0897°
orbit number at epoch: 23104

The dashed part of the orbit path shows where the satellite is in the earth's shadow,  

DLR